Regional Weather Roundup
Issued by NWS

Home | Current Version | Previous Version | Graphics & Text | Print | Product List | Glossary Off
Versions: 1 2 3 4 5 6 7 8 9 10 11 12 13 14 15 16 17 18 19 20 21 22 23 24 25 26 27 28 29 30 31 32 33 34 35 36 37 38 39 40 41 42 43 44 45 46 47 48 49 50

000
ASUS43 KMKX 250721
RWRWI

WISCONSIN REGIONAL WEATHER ROUNDUP
NATIONAL WEATHER SERVICE MILWAUKEE/SULLIVAN WI
200 AM CDT MON SEP 25 2017

NOTE: "FAIR" INDICATES FEW OR NO CLOUDS BELOW 12,000 FEET WITH NO
SIGNIFICANT WEATHER AND/OR OBSTRUCTIONS TO VISIBILITY.

WIZ001-002-006>008-014>016-023>028-250800-
NORTHWEST WISCONSIN

CITY           SKY/WX    TMP DP  RH WIND       PRES   REMARKS
SUPERIOR ARPT  CLOUDY    65  65 100 SW3       29.89S
ASHLAND        CLOUDY    70  64  81 W7        29.90R
HAYWARD        CLOUDY    71  64  78 SW6       29.93S
SIREN          CLOUDY    67  66  95 SW7       29.94R
CUMBERLAND     RAIN      68  63  83 W7        29.96R
RICE LAKE      CLOUDY    68  66  92 SW3       29.96R
CHETEK         CLOUDY    70  65  85 CALM      29.94R
LADYSMITH      PTCLDY    68  62  80 S3        29.96R
EAU CLAIRE     CLOUDY    70  63  78 SW5       29.92R
MENOMONIE      PTCLDY    71  64  77 W3        29.93R
NEW RICHMOND   HVY RAIN  68  66  95 N5        29.94F
OSCEOLA        CLOUDY    68  68 100 W5        29.97S
$$

WIZ003>005-009-010-017-018-250800-
NORTH CENTRAL WISCONSIN

CITY           SKY/WX    TMP DP  RH WIND       PRES   REMARKS
MANITOWISH WTR NOT AVBL
ARBOR VITAE    CLEAR     72  63  72 S6        29.96S
WOODRUFF       CLEAR     72  63  72 S6        29.96S
RHINELANDER    CLEAR     70  61  73 S6        29.98F
EAGLE RIVER    CLEAR     65  57  75 CALM      29.97S
LAND O LAKES   CLEAR     69  59  71 S5        29.98S
PHILLIPS       PTCLDY    68  62  79 S5        29.95S
TOMAHAWK       CLEAR     63  58  86 CALM      29.97S
MEDFORD        CLEAR     64  59  85 S6        29.97R
MERRILL        CLEAR     66  61  82 S5        29.98S
$$

WIZ029-030-035-036-043>047-250800-
CENTRAL WISCONSIN

CITY           SKY/WX    TMP DP  RH WIND       PRES   REMARKS
WAUSAU         CLEAR     67  60  78 SE5       29.96S
MOSINEE        CLEAR     64  59  82 S6        29.99S
MARSHFIELD     CLEAR     66  58  75 S6        29.97R
STEVENS POINT  CLEAR     61  60  95 CALM      29.98S
WAUPACA        CLEAR     66  64  94 CALM      29.98S
WAUTOMA        CLEAR     62  60  93 CALM      29.99S
WISC RAPIDS    CLEAR     66  60  81 CALM      29.98S
CAMP DOUGLAS   CLEAR     62  61  96 S7        29.96S
$$

WIZ011>013-019>022-031-037>040-048>050-250800-
NORTHEAST WISCONSIN

CITY           SKY/WX    TMP DP  RH WIND       PRES   REMARKS
ANTIGO         CLEAR     64  61  89 S3        29.99F
SHAWANO        CLEAR     69  63  79 CALM      29.97F
OCONTO         CLEAR     68  60  76 CALM      29.97S
STURGEON BAY   CLEAR     70  60  70 S7        29.99S
GREEN BAY      CLEAR     70  62  76 S6        29.98S
MANITOWOC      CLEAR     67  62  84 CALM      30.00S
APPLETON       CLEAR     68  55  64 S3        29.98S
CLINTONVILLE   CLEAR     64  61  88 CALM      29.98S
OSHKOSH        CLEAR     65  60  84 S6        29.98S
$$

WIZ032>034-041-042-053>061-250800-
SOUTHWEST WISCONSIN

CITY           SKY/WX    TMP DP  RH WIND       PRES   REMARKS
LA CROSSE      CLEAR     75  65  70 S7        29.93R
SPARTA         CLEAR     64  61  89 CALM      29.96S
VIROQUA        CLEAR     69  63  82 SE5       29.98R
BOSCOBEL       CLEAR     64  62  93 CALM      29.96S FOG
PRAIRIE DU CHI CLEAR     68  61  77 SE3       29.95S
PLATTEVILLE    CLEAR     69  63  79 SE6       29.98S
$$

WIZ056-057-062-063-064-067-068-250800-
SOUTH CENTRAL WISCONSIN

CITY           SKY/WX    TMP DP  RH WIND       PRES   REMARKS
REEDSBURG      PTCLDY    66  62  86 CALM      29.97S
BARABOO/DELLS  CLOUDY    68  60  76 S3        29.98S
LONE ROCK      CLEAR     63  62  97 CALM      29.97S
MINERAL POINT  CLEAR     70  63  78 SE6       29.99S
MADISON        CLEAR     65  61  87 CALM      29.98S
MIDDLETON      CLEAR     64  62  93 CALM      30.00S
WATERTOWN      CLEAR     65  61  86 CALM      29.99S
MONROE         CLEAR     70  57  64 SE5       29.99S
JANESVILLE     CLEAR     63  63 100 CALM      29.98S
$$

WIZ051-052-058>065-066-070>072-250800-
SOUTHEAST WISCONSIN

CITY           SKY/WX    TMP DP  RH WIND       PRES   REMARKS
MILWAUKEE      CLEAR     69  63  81 CALM      29.99F
WAUKESHA       CLEAR     63  59  88 CALM      30.02S
MILWAUKEE/TIMM CLEAR     64  55  72 CALM      30.01S
RACINE         CLEAR     70  67  90 S5        30.01S
BURLINGTON     CLEAR     58  58 100 CALM      30.00S FOG
KENOSHA        CLEAR     71  63  75 SE5       30.00S
FOND DU LAC    CLEAR     67  59  75 S6        29.99S
SHEBOYGAN      CLEAR     62  61  96 CALM      30.00S
WEST BEND        N/A     61  61 100 CALM      30.01S
JUNEAU         CLEAR     67  60  77 CALM      30.01S
$$

LSZ147-162-250800-
LAKE SUPERIOR

STATION/POSITION TIME  TEMP    WIND        PRES    WAVE
                       AIR SEA DIR/SP/G            HT/PER
                 (UTC) (F)     (DEG/KT/KT) (MB)    (FT/S)
W MID LAKE BUOY  0650   61 55  210/  6/  6 1010.6S   1
DEVILS ISLAND    0700   68     230/ 12/ 13 1011.6R
PORT WING        0630   67     190/  6/  7 1012.2R
SAXON HARBOR     0640   75     200/  6/ 10 1011.2R
$$

LMZ867-665-643>646-250800-
LAKE MICHIGAN

STATION/POSITION TIME  TEMP    WIND        PRES    WAVE
                       AIR SEA DIR/SP/G            HT/PER
                 (UTC) (F)     (DEG/KT/KT) (MB)    (FT/S)
N MID LAKE BUOY  0650   69 67  180/  8/  8 1015.7R   1/ 3
NORTHPORT PIER   0640   70     150/  5/  9 1014.9S
KEWAUNEE LAKESHO 0700   65     180/  4/  4 1014.8
SHEBOYGAN LAKESH 0700   71     210/  6/  6 1015.2S
PORT WASHINGTON  0640   69     260/  2/  4 1016.6S
ATWATER BUOY     0609   65 60  180/  4/  4 1015.9F
MILWAUKEE LAKESH 0700   73     180/  2/  2   N/A
S MID LAKE BUOY  0650   74 71  140/  8/ 10 1015.9S   0
KENOSHA   LAKESH 0700   72     180/  7/  8 1015.6
$$

TC  - TEMPERATURE IN CELSIUS
VSB - VISIBILITY IN STATUTE MILES
WCI - WIND CHILL INDEX
HX  - HEAT INDEX





USA.gov is the U.S. government's official web portal to all federal, state and local government web resources and services.